Meadow Lake, CO

9:10 PM MDT on March 22, 2017 (GMT -0600)
Meadow Lake

Weather History for KFLY - January, 2013

Change the Weather History Date:

Wednesday, January 23, 2013

  Actual Average (KCOS) Record (KCOS)
Temperature  
Mean Temperature 47 °F -  
Max Temperature 66 °F 45 °F 68 °F (2013)
Min Temperature 28 °F 19 °F -11 °F (1963)
Degree Days  
Heating Degree Days 18    
Moisture  
Dew Point -13 °F    
Average Humidity 10    
Maximum Humidity 27    
Minimum Humidity 4    
Precipitation  
Precipitation 0.00 in - - ()
Sea Level Pressure  
Sea Level Pressure 30.22 in    
Wind  
Wind Speed 8 mph (WNW)    
Max Wind Speed 16 mph    
Max Gust Speed 18 mph    
Visibility 10 miles    
Events      
Averages and records for this station are not official NWS values.
T = Trace of Precipitation, MM = Missing Value Source: NWS Daily Summary

Daily Weather History Graph

Daily Weather History Graph

Search for Another Location

Airport or City:

Trip Planner

Search our weather history database for the weather conditions in past years. The results will help you decide how hot, cold, wet, or windy it might be!

Date:

Astronomy

Jan. 23, 2013 Rise Set
Actual Time 7:11 AM MST 5:09 PM MST
Civil Twilight 6:42 AM MST 5:38 PM MST
Nautical Twilight 6:10 AM MST 6:10 PM MST
Astronomical Twilight 5:38 AM MST 6:42 PM MST
Moon 2:22 PM MST 4:24 AM MST
Length of Visible Light 10h 55m
Length of Day
9h 58m
Waxing Gibbous, 89% of the Moon is Illuminated
Jan 23
Waxing Gibbous
Jan 26
Full
Feb 3
Last Quarter
Feb 10
New
Feb 17
First Quarter

Hourly Weather History & Observations

Time (MST) Temp. Windchill Dew Point Humidity Pressure Visibility Wind Dir Wind Speed Gust Speed Precip Events Conditions
12:14 AM 33.4 °F 25.4 °F -16.4 °F 11% 30.22 in 10.0 mi West 10.4 mph - N/A   Clear
12:34 AM 37.8 °F 31.8 °F -16.4 °F 9% 30.22 in 10.0 mi West 8.1 mph - N/A   Clear
12:54 AM 35.2 °F 30.3 °F -17.7 °F 10% 30.22 in 10.0 mi NW 5.8 mph - N/A   Clear
1:14 AM 37.4 °F 32.8 °F -16.8 °F 9% 30.22 in 10.0 mi West 5.8 mph - N/A   Clear
1:34 AM 34.0 °F 27.2 °F -15.3 °F 11% 30.22 in 10.0 mi WNW 8.1 mph - N/A   Clear
1:54 AM 29.3 °F 21.5 °F -16.6 °F 13% 30.22 in 10.0 mi NW 8.1 mph - N/A   Clear
2:14 AM 31.5 °F 23.5 °F -17.7 °F 11% 30.22 in 10.0 mi WNW 9.2 mph - N/A   Clear
2:34 AM 30.4 °F 22.2 °F -18.6 °F 11% 30.22 in 10.0 mi NW 9.2 mph - N/A   Clear
2:54 AM 28.9 °F 20.4 °F -17.1 °F 13% 30.21 in 10.0 mi NW 9.2 mph - N/A   Clear
3:14 AM 30.0 °F 20.5 °F -18.0 °F 12% 30.21 in 10.0 mi NW 11.5 mph - N/A   Clear
3:34 AM 30.7 °F 22.6 °F -18.4 °F 11% 30.21 in 10.0 mi NW 9.2 mph - N/A   Clear
3:54 AM 31.8 °F 23.9 °F -19.1 °F 10% 30.21 in 10.0 mi NW 9.2 mph - N/A   Clear
4:14 AM 30.7 °F 24.1 °F -18.8 °F 11% 30.20 in 10.0 mi NW 6.9 mph - N/A   Clear
4:34 AM 30.9 °F 22.8 °F -18.2 °F 11% 30.21 in 10.0 mi NW 9.2 mph - N/A   Clear
4:54 AM 32.0 °F 26.4 °F -18.9 °F 10% 30.21 in 10.0 mi West 5.8 mph - N/A   Clear
5:14 AM 31.6 °F 23.7 °F -18.0 °F 11% 30.21 in 10.0 mi NW 9.2 mph - N/A   Clear
5:34 AM 34.0 °F 25.0 °F -19.1 °F 10% 30.21 in 10.0 mi WNW 12.7 mph - N/A   Clear
5:54 AM 37.0 °F 29.8 °F -18.8 °F 9% 30.21 in 10.0 mi NW 10.4 mph - N/A   Clear
6:14 AM 35.2 °F 27.1 °F -17.9 °F 10% 30.22 in 10.0 mi WNW 11.5 mph - N/A   Clear
6:34 AM 31.5 °F 22.9 °F -18.4 °F 11% 30.22 in 10.0 mi WNW 10.4 mph 18.4 mph N/A   Clear
6:54 AM 38.3 °F 31.9 °F -15.3 °F 10% 30.22 in 10.0 mi WNW 9.2 mph - N/A   Clear
7:14 AM 40.5 °F 33.2 °F -18.0 °F 8% 30.23 in 10.0 mi NW 12.7 mph 16.1 mph N/A   Clear
7:34 AM 44.4 °F 37.9 °F -18.2 °F 7% 30.24 in 10.0 mi WNW 13.8 mph 17.3 mph N/A   Clear
7:54 AM 46.2 °F 41.7 °F -16.8 °F 7% 30.24 in 10.0 mi WNW 9.2 mph - N/A   Clear
8:14 AM 46.6 °F - -16.2 °F 7% 30.25 in 10.0 mi WNW 13.8 mph - N/A   Clear
8:34 AM 50.0 °F - -16.6 °F 6% 30.25 in 10.0 mi NW 8.1 mph - N/A   Clear
8:54 AM 48.6 °F - -15.5 °F 6% 30.25 in 10.0 mi WNW 10.4 mph - N/A   Clear
9:14 AM 50.2 °F - -14.6 °F 6% 30.26 in 10.0 mi WNW 6.9 mph - N/A   Clear
9:34 AM 52.0 °F - -13.5 °F 6% 30.26 in 10.0 mi NW 3.5 mph - N/A   Clear
9:54 AM 53.8 °F - -13.2 °F 6% 30.26 in 10.0 mi NW 3.5 mph - N/A   Clear
10:14 AM 54.1 °F - -10.1 °F 7% 30.26 in 10.0 mi NNW 5.8 mph - N/A   Clear
10:34 AM 56.7 °F - -11.7 °F 6% 30.26 in 10.0 mi NNW 8.1 mph - N/A   Clear
10:54 AM 57.4 °F - -9.9 °F 6% 30.26 in 10.0 mi WSW 8.1 mph - N/A   Clear
11:14 AM 57.6 °F - -10.7 °F 6% 30.26 in 10.0 mi WSW 5.8 mph - N/A   Clear
11:34 AM 60.3 °F - -9.4 °F 6% 30.25 in 10.0 mi WNW 6.9 mph 16.1 mph N/A   Clear
11:54 AM 61.7 °F - -12.1 °F 5% 30.23 in 10.0 mi NNW 5.8 mph - N/A   Clear
12:14 PM 63.0 °F - -11.9 °F 5% 30.22 in 10.0 mi NNW 3.5 mph - N/A   Clear
12:34 PM 63.1 °F - -12.5 °F 4% 30.22 in 10.0 mi West 3.5 mph - N/A   Clear
12:54 PM 63.9 °F - -14.1 °F 4% 30.20 in 10.0 mi WSW 10.4 mph - N/A   Clear
1:14 PM 64.0 °F - -14.6 °F 4% 30.20 in 10.0 mi West 8.1 mph - N/A   Clear
1:34 PM 64.8 °F - -13.9 °F 4% 30.20 in 10.0 mi West 12.7 mph 18.4 mph N/A   Clear
1:54 PM 66.9 °F - -13.2 °F 4% 30.20 in 10.0 mi WSW 8.1 mph 16.1 mph N/A   Clear
2:14 PM 66.2 °F - -14.3 °F 4% 30.20 in 10.0 mi WSW 9.2 mph 17.3 mph N/A   Clear
2:34 PM 66.7 °F - -14.6 °F 4% 30.20 in 10.0 mi WSW 9.2 mph - N/A   Clear
2:54 PM 65.7 °F - -15.3 °F 4% 30.19 in 10.0 mi SSW 16.1 mph - N/A   Clear
3:14 PM 63.0 °F - -15.7 °F 4% 30.19 in 10.0 mi SSW 9.2 mph 16.1 mph N/A   Clear
3:34 PM 59.9 °F - -12.6 °F 5% 30.19 in 10.0 mi South 6.9 mph 16.1 mph N/A   Clear
3:54 PM 58.6 °F - -13.2 °F 5% 30.18 in 10.0 mi SE 6.9 mph - N/A   Clear
4:14 PM 55.9 °F - -13.4 °F 6% 30.18 in 10.0 mi SE 6.9 mph - N/A   Clear
4:34 PM 52.7 °F - -13.7 °F 6% 30.18 in 10.0 mi SSW 10.4 mph - N/A   Clear
4:54 PM 51.8 °F - -14.1 °F 6% 30.19 in 10.0 mi SW 4.6 mph - N/A   Clear
5:14 PM 53.6 °F - -13.9 °F 6% 30.20 in 10.0 mi SW 4.6 mph - N/A   Clear
5:34 PM 49.1 °F - -13.2 °F 7% 30.19 in 10.0 mi South 6.9 mph - N/A   Clear
5:54 PM 49.6 °F - -13.9 °F 7% 30.20 in 10.0 mi South 8.1 mph - N/A   Clear
6:14 PM 47.7 °F - -12.1 °F 8% 30.20 in 10.0 mi South 3.5 mph - N/A   Clear
6:34 PM 47.3 °F - -11.0 °F 8% 30.20 in 10.0 mi East 5.8 mph - N/A   Clear
6:54 PM 45.7 °F 44.4 °F -8.7 °F 10% 30.21 in 10.0 mi NE 3.5 mph - N/A   Clear
7:14 PM 43.9 °F 38.3 °F -8.3 °F 11% 30.21 in 10.0 mi NNE 10.4 mph - N/A   Clear
7:34 PM 41.2 °F 36.6 °F -7.8 °F 12% 30.21 in 10.0 mi North 6.9 mph - N/A   Clear
7:54 PM 41.4 °F 35.7 °F -7.8 °F 12% 30.21 in 10.0 mi NNE 9.2 mph - N/A   Clear
8:14 PM 39.9 °F 37.8 °F -8.0 °F 13% 30.21 in 10.0 mi NNW 3.5 mph - N/A   Clear
8:34 PM 41.2 °F 38.2 °F -7.8 °F 12% 30.22 in 10.0 mi East 4.6 mph - N/A   Clear
8:54 PM 41.5 °F - -7.8 °F 12% 30.23 in 10.0 mi Calm Calm - N/A   Clear
9:14 PM 37.4 °F 34.9 °F -8.1 °F 14% 30.23 in 10.0 mi SE 3.5 mph - N/A   Clear
9:34 PM 38.3 °F - -6.9 °F 15% 30.24 in 10.0 mi Calm Calm - N/A   Clear
9:54 PM 36.5 °F 31.8 °F -5.6 °F 17% 30.24 in 10.0 mi South 5.8 mph - N/A   Clear
10:14 PM 36.1 °F - -3.6 °F 18% 30.24 in 10.0 mi Calm Calm - N/A   Clear
10:34 PM 31.3 °F - -2.9 °F 23% 30.24 in 10.0 mi Calm Calm - N/A   Clear
10:54 PM 30.7 °F 26.0 °F -2.7 °F 24% 30.22 in 10.0 mi NW 4.6 mph - N/A   Clear
11:14 PM 28.6 °F 22.4 °F -1.7 °F 27% 30.22 in 10.0 mi WNW 5.8 mph - N/A   Clear
11:34 PM 30.7 °F 24.9 °F -1.7 °F 25% 30.22 in 10.0 mi WNW 5.8 mph - N/A   Clear
11:54 PM 32.0 °F 25.6 °F -4.4 °F 21% 30.21 in 10.0 mi West 6.9 mph - N/A   Clear